Location: Newark
(47.8285°N, 0.6972°W)
Time: 13:23:17
(UTC+00:00)

KKS-1 - Visible Passes

Search period start: 10 December 2019 00:00
Search period end: 20 December 2019 00:00
Orbit: 637 x 650 km, 98.3° (Epoch: 09 December)

Date Brightness Start Highest point End Pass type
(mag) Time Alt. Az. Time Alt. Az. Time Alt. Az.
10 Dec ? 05:45:56 10° ESE 05:49:41 28° ENE 05:53:27 10° N visible
11 Dec ? 06:09:50 10° SE 06:14:02 45° ENE 06:18:17 10° N visible
12 Dec ? 05:01:23 10° ENE 05:02:43 11° NE 05:04:04 10° NE visible
12 Dec ? 06:34:05 10° SSE 06:38:30 78° ENE 06:42:57 10° NNW visible
13 Dec ? 05:23:58 10° ESE 05:26:55 18° ENE 05:29:54 10° NNE visible
13 Dec ? 06:58:40 10° S 07:03:01 60° WSW 07:07:26 10° NNW visible
14 Dec ? 05:47:26 10° ESE 05:51:13 28° ENE 05:55:00 10° N visible
15 Dec ? 06:11:22 10° SE 06:15:34 46° ENE 06:19:50 10° N visible
16 Dec ? 05:02:48 10° ENE 05:04:14 11° NE 05:05:42 10° NE visible
16 Dec ? 06:35:37 10° SSE 06:40:01 80° ENE 06:44:30 10° NNW visible
17 Dec ? 05:25:27 10° ESE 05:28:27 18° ENE 05:31:28 10° NNE visible
17 Dec ? 07:00:12 10° S 07:04:33 59° WSW 07:08:58 10° NNW visible
18 Dec ? 05:48:57 10° SE 05:52:44 29° ENE 05:56:33 10° N visible
19 Dec ? 06:12:52 10° SE 06:17:06 47° ENE 06:21:23 10° N visible
